Regional Weather Roundup
Issued by NWS

Home | Current Version | Previous Version | Graphics & Text | Print | Product List | Glossary Off
Versions: 1 2 3 4 5 6 7 8 9 10 11 12 13 14 15 16 17 18 19 20 21 22 23 24 25 26 27 28 29 30 31 32 33 34 35 36 37 38 39 40 41 42 43 44 45 46 47 48 49 50

563
ASUS44 KJAN 192210
RWRMS

MISSISSIPPI HOURLY WEATHER ROUNDUP
NATIONAL WEATHER SERVICE JACKSON MS
500 PM CDT SAT APR 19 2014

NOTE: "FAIR: INDICATES FEW OR NO CLOUDS BELOW 12,000 FEET WITH NO
SIGNIFICANT WEATHER AND/OR OBSTRUCTIONS TO VISIBILITY.

MSZ001>002-007>008-010>013-018>021-025>028-034>036-192300-
NORTHWEST MISSISSIPPI

CITY           SKY/WX    TMP DP  RH WIND       PRES   REMARKS
CLARKSDALE       N/A     77  46  33 N6        30.13F
CLEVELAND      FAIR      78  49  35 N10       30.11F
GREENWOOD      SUNNY     78  48  34 NW7       30.10F
GREENVILLE     SUNNY     78  50  37 N8        30.11F
GRENADA        FAIR      79  45  29 N7        30.10F
OLIVE BRANCH   PTSUNNY   75  43  31 NE6       30.13F
OXFORD         FAIR      75  41  29 E7        30.12F
TUNICA         PTCLDY    77  45  31 N7        30.13F
$$

MSZ003>006-009-014>017-022>024-029>033-037>039-192300-
NORTHEAST MISSISSIPPI

CITY           SKY/WX    TMP DP  RH WIND       PRES   REMARKS
BELMONT        FAIR      76  44  32 NE7       30.11R
COLUMBUS AFB   SUNNY     80  42  26 NE9       30.09S
CORINTH        FAIR      77  36  22 NE12      30.11S
GOLDN TRIANGLE SUNNY     79  46  31 N5        30.12S
STARKVILLE     FAIR      77  43  29 N6        30.10S
TUPELO         SUNNY     78  41  26 N8        30.10S
$$

MSZ040-058-192300-
CENTRAL MISSISSIPPI

CITY           SKY/WX    TMP DP  RH WIND       PRES   REMARKS
JACKSON INTL   MOSUNNY   77  50  38 N7        30.10F
JACKSON HAWKNS PTSUNNY   77  50  38 W7        30.11S
MERIDIAN KEY   SUNNY     78  46  32 N10G20    30.08F
MERIDIAN NAS   SUNNY     78  45  30 N9G16     30.08F
RAYMOND        FAIR      75  72  88 N5        30.11F
VICKSBURG      SUNNY     78  51  38 N9        30.12F
$$

MSZ059>079-192300-
SOUTH MISSISSIPPI

CITY           SKY/WX    TMP DP  RH WIND       PRES   REMARKS
BROOKHAVEN     FAIR      77  52  41 NW7       30.12S
COLUMBIA       FAIR      77  52  41 MISG      30.07F
HATTIESBURG    SUNNY     78  50  37 NW10      30.08S
MCCOMB         MOSUNNY   78  49  35 N8        30.09F
NATCHEZ        SUNNY     75  52  43 N12       30.11F
PINE BELT      SUNNY     79  50  36 NW7       30.09S
$$

MSZ080>082-192300-
COASTAL MISSISSIPPI

CITY           SKY/WX    TMP DP  RH WIND       PRES   REMARKS
BAY ST LOUIS   SUNNY     79  46  31 NW9       30.06S
BILOXI         MOSUNNY   78  52  40 NW14G20   30.04S
PASCAGOULA     SUNNY     78  51  38 N10G18    30.03F
GULFPORT       SUNNY     82  49  31 N14       30.04S
$$



USA.gov is the U.S. government's official web portal to all federal, state and local government web resources and services.